Powrót do katalogu

SCOUT G-1 DEB

AktywnyPO
NORAD 18562·DEBRIS·🇺🇸 United States

Wystrzelony Sep 16, 1987 z Vandenberg Space Force Base

Loading…

Następne Przeloty (najbliższe 24 godziny)

TLE

ŚwieżeSource: Space-Track

Epoka: Sep 14, 2026, 04:09 UTC

1 18562U 87080H   26257.17313766  .00000198  00000-0  31765-3 0  9994
2 18562  89.8966 153.4044 0177897 263.1623 253.3488 13.40164458902452

Śledź SCOUT G-1 DEB w czasie rzeczywistym z AllMySat

Download on the App Store